KG6SIB Weather Reports


Display with metric or nautical units.
time (UTC)temp
F
wind
direction
speed
MPH
gust
MPH
rain 1hr
in
rain 24hr
in
rain mn
in
humidity
%
barometer
mb
20170325133641 41 330 0.0 4.0 0.00 0.00 0.00 61 1017.5
20170325133142 40 45 1.0 4.0 0.00 0.00 0.00 61 1017.2
20170325132642 39 39 4.0 5.0 0.00 0.00 0.00 61 1017.3
20170325132141 38 49 4.0 6.0 0.00 0.00 0.00 63 1016.9
20170325131642 38 44 5.0 6.0 0.00 0.00 0.00 64 1016.8
20170325131140 38 49 5.0 6.0 0.00 0.00 0.00 62 1016.8
20170325130640 38 38 5.0 6.0 0.00 0.00 0.00 63 1016.7
20170325130139 38 42 3.0 6.0 0.00 0.00 0.00 63 1016.7
20170325125642 38 39 4.0 7.0 0.00 0.00 0.00 65 1017.2
20170325125141 38 31 4.0 7.0 0.00 0.00 0.00 64 1017.2
20170325124640 38 51 4.0 7.0 0.00 0.00 0.00 62 1017.2
20170325124140 39 45 6.0 7.0 0.00 0.00 0.00 61 1017.4
20170325123641 39 43 5.0 7.0 0.00 0.00 0.00 61 1017.4
20170325123140 39 39 3.0 7.0 0.00 0.00 0.00 58 1017.3
20170325122641 39 44 4.0 6.0 0.00 0.00 0.00 60 1017.4
20170325122141 39 41 3.0 7.0 0.00 0.00 0.00 61 1017.4
20170325121640 38 39 6.0 7.0 0.00 0.00 0.00 65 1017.2
20170325121138 38 63 4.0 7.0 0.00 0.00 0.00 65 1017.2
20170325120639 38 46 6.0 8.0 0.00 0.00 0.00 67 1017.2
20170325120139 38 34 5.0 8.0 0.00 0.00 0.00 69 1017.2
20170325115638 38 49 6.0 7.0 0.00 0.00 0.00 69 1017.6
20170325115138 38 50 5.0 8.0 0.00 0.00 0.00 70 1017.7
20170325114637 39 44 5.0 8.0 0.00 0.00 0.00 68 1017.8
20170325114138 39 39 6.0 7.0 0.00 0.00 0.00 69 1017.9
20170325113637 39 34 6.0 8.0 0.00 0.00 0.00 70 1017.9
20170325113139 40 48 5.0 8.0 0.00 0.00 0.00 69 1017.9
20170325112639 40 42 7.0 8.0 0.00 0.00 0.00 69 1017.9
20170325112140 40 44 6.0 8.0 0.00 0.00 0.00 71 1018.0
20170325111638 41 40 5.0 7.0 0.00 0.00 0.00 72 1018.2
20170325110642 42 39 4.0 5.0 0.00 0.00 0.00 71 1018.5
20170325110140 43 49 4.0 5.0 0.00 0.00 0.00 71 1018.7
20170325105640 43 46 3.0 5.0 0.00 0.00 0.00 67 1019.2
20170325105141 43 40 4.0 5.0 0.00 0.00 0.00 72 1019.2
20170325104640 43 52 2.0 5.0 0.00 0.00 0.00 72 1019.2
20170325104141 44 49 3.0 4.0 0.00 0.00 0.00 73 1019.6
20170325103639 44 47 4.0 4.0 0.00 0.00 0.00 69 1019.6
20170325103141 44 49 0.0 3.0 0.00 0.00 0.00 65 1019.7
20170325102640 44 49 0.0 4.0 0.00 0.00 0.00 75 1020.1
20170325102141 43 48 2.0 4.0 0.00 0.00 0.00 79 1019.9
20170325101640 42 44 4.0 4.0 0.00 0.00 0.00 82 1020.0
20170325101139 42 43 2.0 4.0 0.00 0.00 0.00 85 1020.0
20170325100639 42 41 0.0 5.0 0.00 0.00 0.00 85 1020.0
20170325100141 42 29 2.0 6.0 0.00 0.00 0.00 86 1020.1
20170325095638 42 46 5.0 6.0 0.00 0.00 0.00 86 1020.5
20170325095139 42 30 3.0 5.0 0.00 0.00 0.00 85 1020.7
20170325094639 42 45 4.0 6.0 0.00 0.00 0.00 85 1020.8
20170325094140 42 48 2.0 6.0 0.00 0.00 0.00 86 1020.7
20170325093637 42 37 6.0 6.0 0.00 0.00 0.00 86 1020.9
20170325093139 42 54 3.0 6.0 0.00 0.00 0.00 86 1021.0
20170325092638 42 43 4.0 6.0 0.00 0.00 0.00 87 1021.1
20170325092141 41 37 5.0 5.0 0.00 0.00 0.00 88 1020.9
20170325091639 41 53 4.0 4.0 0.00 0.00 0.00 88 1021.0
20170325091137 42 49 3.0 4.0 0.00 0.00 0.00 88 1021.2
20170325090636 41 41 0.0 4.0 0.00 0.00 0.00 89 1020.9
20170325090137 41 46 3.0 5.0 0.00 0.00 0.00 89 1021.0
20170325085636 41 40 4.0 5.0 0.00 0.00 0.00 89 1021.0
20170325085136 41 38 4.0 5.0 0.00 0.00 0.00 88 1021.0
20170325084636 41 49 4.0 5.0 0.00 0.00 0.00 88 1021.2
20170325084136 41 53 4.0 5.0 0.00 0.00 0.00 88 1021.3
20170325083636 41 44 4.0 6.0 0.00 0.00 0.00 88 1021.3
20170325083137 41 52 4.0 6.0 0.00 0.00 0.00 88 1021.3
20170325082635 41 30 3.0 6.0 0.00 0.00 0.00 88 1021.4
20170325082135 40 42 4.0 6.0 0.00 0.00 0.00 88 1021.1
20170325081635 40 48 4.0 6.0 0.00 0.00 0.00 88 1021.0
20170325081134 40 43 5.0 6.0 0.00 0.00 0.00 88 1021.1
20170325080636 40 42 4.0 6.0 0.00 0.00 0.00 89 1021.2
20170325080135 40 58 4.0 6.0 0.00 0.00 0.00 89 1021.2
20170325075634 41 35 4.0 6.0 0.00 0.00 0.00 89 1021.7
20170325075135 41 55 4.0 5.0 0.00 0.00 0.00 89 1021.7
20170325074635 41 34 4.0 5.0 0.00 0.00 0.00 90 1021.6
20170325074134 41 51 4.0 5.0 0.00 0.00 0.00 90 1021.6
20170325073634 41 41 3.0 5.0 0.00 0.00 0.00 90 1021.6
20170325073135 41 37 3.0 5.0 0.00 0.00 0.00 90 1021.5
20170325072636 41 39 3.0 5.0 0.00 0.00 0.00 89 1021.7
20170325072135 41 30 3.0 5.0 0.00 0.00 0.00 89 1021.8
20170325071634 41 45 3.0 5.0 0.00 0.00 0.00 89 1021.9
20170325070618 41 35 3.0 4.0 0.00 0.00 0.00 89 1022.1
20170325070116 41 41 4.0 4.0 0.00 0.00 0.00 87 1022.1
20170325065616 42 42 2.0 2.0 0.00 0.00 0.00 86 1022.0
20170325065117 42 64 0.0 4.0 0.00 0.00 0.00 86 1022.0
20170325064616 42 35 2.0 4.0 0.00 0.00 0.00 85 1022.1
20170325064116 41 49 3.0 4.0 0.00 0.00 0.00 86 1022.1
20170325063616 41 37 1.0 6.0 0.00 0.00 0.00 86 1021.9
20170325063116 41 28 2.0 7.0 0.00 0.00 0.00 86 1021.8
20170325062616 41 47 5.0 7.0 0.00 0.00 0.00 86 1021.8
20170325062117 41 48 5.0 6.0 0.00 0.00 0.00 85 1021.8
20170325061618 41 47 4.0 6.0 0.00 0.00 0.00 85 1021.9
20170325061116 41 33 5.0 5.0 0.00 0.00 0.00 85 1021.8
20170325060615 41 38 4.0 6.0 0.00 0.00 0.00 85 1021.9
20170325060115 42 43 5.0 6.0 0.00 0.00 0.00 84 1022.0
20170325055615 42 39 4.0 4.0 0.00 0.00 0.00 83 1021.6
20170325055115 43 35 2.0 4.0 0.00 0.00 0.00 83 1021.9
20170325054615 42 47 3.0 4.0 0.00 0.00 0.00 82 1021.6
20170325054115 43 48 4.0 5.0 0.00 0.00 0.00 81 1021.8
20170325053614 43 36 4.0 6.0 0.00 0.00 0.00 82 1021.9
20170325053115 43 23 3.0 6.0 0.00 0.00 0.00 81 1021.9
20170325052616 43 36 4.0 5.0 0.00 0.00 0.00 82 1021.8
20170325052115 43 31 4.0 4.0 0.00 0.00 0.00 83 1021.8
20170325051615 43 48 3.0 5.0 0.00 0.00 0.00 83 1021.8
20170325051114 43 37 4.0 5.0 0.00 0.00 0.00 84 1021.8
20170325050614 43 31 4.0 5.0 0.00 0.00 0.00 86 1021.9
20170325050114 43 49 4.0 4.0 0.00 0.00 0.00 85 1022.1
20170325045613 43 53 2.0 4.0 0.00 0.00 0.00 85 1022.1
20170325045114 43 46 3.0 5.0 0.00 0.00 0.00 86 1022.1
20170325044615 42 39 3.0 7.0 0.00 0.00 0.00 88 1021.9
20170325044115 42 54 4.0 7.0 0.00 0.00 0.00 87 1021.9
20170325043616 42 49 7.0 7.0 0.00 0.00 0.00 85 1022.1
20170325043113 42 60 5.0 6.0 0.00 0.00 0.00 85 1022.2
20170325042614 43 54 5.0 5.0 0.00 0.00 0.00 84 1022.4
20170325042112 43 38 4.0 5.0 0.00 0.00 0.00 84 1022.2
20170325041612 43 58 4.0 5.0 0.00 0.00 0.00 85 1022.1
20170325041112 43 36 2.0 5.0 0.00 0.00 0.00 85 1022.0
20170325040643 44 34 4.0 5.0 0.00 0.00 0.00 85 1022.0
20170325040142 44 45 4.0 5.0 0.00 0.00 0.00 85 1021.9
20170325035644 44 40 4.0 5.0 0.00 0.00 0.00 84 1021.5
20170325035143 44 43 4.0 4.0 0.00 0.00 0.00 84 1021.4
20170325034641 45 46 2.0 4.0 0.00 0.00 0.00 84 1021.5
20170325034141 45 47 3.0 4.0 0.00 0.00 0.00 84 1021.7
20170325033644 45 39 3.0 4.0 0.00 0.00 0.00 82 1021.6
20170325033143 46 56 3.0 3.0 0.00 0.00 0.00 80 1021.5
20170325032642 46 30 0.0 2.0 0.00 0.00 0.00 80 1021.5
20170325032142 47 31 0.0 2.0 0.00 0.00 0.00 78 1021.6
20170325031642 46 33 0.0 5.0 0.00 0.00 0.00 77 1021.0
20170325030642 46 37 3.0 5.0 0.00 0.00 0.00 82 1020.8
20170325030139 46 65 4.0 5.0 0.00 0.00 0.00 82 1020.7
20170325025641 46 49 2.0 5.0 0.00 0.00 0.00 86 1019.7
20170325025141 47 48 3.0 4.0 0.00 0.00 0.00 85 1019.7
20170325024641 47 56 1.0 4.0 0.00 0.00 0.00 85 1019.8
20170325024139 48 56 2.0 5.0 0.00 0.00 0.00 85 1020.1
20170325023640 48 51 3.0 5.0 0.00 0.00 0.00 84 1020.1
20170325023139 48 58 5.0 5.0 0.00 0.00 0.00 83 1020.2
20170325022640 49 44 3.0 4.0 0.00 0.00 0.00 81 1020.3
20170325022141 50 329 0.0 2.0 0.00 0.00 0.00 81 1020.6
20170325021639 50 307 1.0 3.0 0.00 0.00 0.00 80 1020.5
20170325021140 51 27 0.0 3.0 0.00 0.00 0.00 79 1020.3
20170325020638 51 37 2.0 3.0 0.00 0.00 0.00 78 1020.3
20170325020138 52 34 2.0 3.0 0.00 0.00 0.00 77 1020.5
20170325015639 52 28 2.0 2.0 0.00 0.00 0.00 75 1019.4
20170325015138 53 319 1.0 2.0 0.00 0.00 0.00 74 1019.5
20170325014640 53 293 1.0 3.0 0.00 0.00 0.00 73 1019.6
20170325014137 54 278 1.0 3.0 0.00 0.00 0.00 72 1020.0
20170325013638 54 316 3.0 3.0 0.00 0.00 0.00 71 1020.0
20170325013138 55 265 1.0 3.0 0.00 0.00 0.00 70 1020.1
20170325012638 55 227 2.0 6.0 0.00 0.00 0.00 70 1020.0
20170325012137 55 271 2.0 6.0 0.00 0.00 0.00 70 1020.1
20170325011638 55 206 2.0 5.0 0.00 0.00 0.00 70 1020.1
20170325011138 55 242 2.0 5.0 0.00 0.00 0.00 71 1020.1
20170325010636 55 216 4.0 7.0 0.00 0.00 0.00 70 1020.2
20170325010136 55 248 5.0 9.0 0.00 0.00 0.00 70 1020.3
20170325005636 56 240 5.0 9.0 0.00 0.00 0.00 70 1020.3
20170325005136 56 230 4.0 9.0 0.00 0.00 0.00 70 1020.4
20170325004637 56 217 8.0 10.0 0.00 0.00 0.00 69 1020.4
20170325004138 56 216 2.0 10.0 0.00 0.00 0.00 69 1020.3
20170325003635 56 276 4.0 9.0 0.00 0.00 0.00 71 1020.4
20170325003137 56 226 6.0 10.0 0.00 0.00 0.00 71 1020.5
20170325002637 56 271 4.0 10.0 0.00 0.00 0.00 71 1020.6
20170325002137 56 223 6.0 11.0 0.00 0.00 0.00 72 1020.5
20170325001636 57 278 5.0 11.0 0.00 0.00 0.00 71 1020.8
20170325001134 57 231 8.0 11.0 0.00 0.00 0.00 71 1020.8
20170325000638 58 281 8.0 13.0 0.00 0.00 0.00 71 1020.8
20170325000135 59 263 9.0 13.0 0.00 0.00 0.00 68 1021.0
20170324235636 59 282 5.0 14.0 0.00 0.00 0.00 67 1021.0
20170324235137 60 262 7.0 14.0 0.00 0.00 0.00 64 1020.9
20170324234635 61 253 6.0 12.0 0.00 0.00 0.00 59 1020.9
20170324234136 62 241 6.0 10.0 0.00 0.00 0.00 56 1020.8
20170324233634 63 225 8.0 10.0 0.00 0.00 0.00 49 1020.9
20170324233134 63 221 4.0 9.0 0.00 0.00 0.00 46 1020.8
20170324232634 63 226 9.0 10.0 0.00 0.00 0.00 46 1020.8
20170324232136 63 251 5.0 10.0 0.00 0.00 0.00 44 1020.9
20170324231634 63 269 2.0 9.0 0.00 0.00 0.00 43 1021.0
20170324230618 63 263 7.0 13.0 0.00 0.00 0.00 43 1021.1
20170324230119 64 243 9.0 13.0 0.00 0.00 0.00 43 1021.2
20170324225619 64 229 5.0 11.0 0.00 0.00 0.00 43 1021.2
20170324225117 64 219 6.0 10.0 0.00 0.00 0.00 43 1021.3
20170324224618 65 234 5.0 9.0 0.00 0.00 0.00 43 1021.6
20170324224118 65 227 5.0 12.0 0.00 0.00 0.00 42 1021.7
20170324223619 65 174 3.0 12.0 0.00 0.00 0.00 42 1021.7
20170324223118 64 274 7.0 12.0 0.00 0.00 0.00 42 1021.4
20170324222617 65 226 5.0 9.0 0.00 0.00 0.00 40 1021.5
20170324222117 66 266 3.0 9.0 0.00 0.00 0.00 40 1021.7
20170324221617 66 288 3.0 11.0 0.00 0.00 0.00 40 1021.7
20170324221117 65 266 3.0 11.0 0.00 0.00 0.00 39 1021.8
20170324220616 66 259 5.0 10.0 0.00 0.00 0.00 42 1021.8
20170324220117 66 250 4.0 9.0 0.00 0.00 0.00 41 1021.9
20170324215616 66 232 6.0 9.0 0.00 0.00 0.00 39 1022.0
20170324215116 66 283 5.0 9.0 0.00 0.00 0.00 41 1022.1
20170324214617 65 278 4.0 9.0 0.00 0.00 0.00 39 1022.1
20170324214116 65 227 4.0 9.0 0.00 0.00 0.00 38 1022.0
20170324213616 65 261 3.0 6.0 0.00 0.00 0.00 42 1022.2
20170324213116 64 161 2.0 7.0 0.00 0.00 0.00 40 1021.9
20170324212616 65 286 3.0 7.0 0.00 0.00 0.00 40 1022.4
20170324212117 65 254 6.0 7.0 0.00 0.00 0.00 42 1022.5
20170324211615 64 268 0.0 7.0 0.00 0.00 0.00 40 1022.3
20170324211117 64 278 5.0 7.0 0.00 0.00 0.00 38 1022.3
20170324210615 64 303 7.0 8.0 0.00 0.00 0.00 44 1022.4
20170324210115 63 272 3.0 8.0 0.00 0.00 0.00 44 1022.5
20170324205614 63 264 4.0 9.0 0.00 0.00 0.00 41 1022.4
20170324205115 63 237 1.0 9.0 0.00 0.00 0.00 43 1022.4
20170324204615 64 271 5.0 11.0 0.00 0.00 0.00 41 1022.6
20170324204116 64 259 7.0 11.0 0.00 0.00 0.00 43 1022.8
20170324203615 64 299 6.0 9.0 0.00 0.00 0.00 42 1022.8
20170324203115 64 304 6.0 10.0 0.00 0.00 0.00 38 1022.9
20170324202616 65 272 8.0 10.0 0.00 0.00 0.00 29 1022.9
20170324202115 65 269 1.0 10.0 0.00 0.00 0.00 32 1022.9
20170324201613 65 294 3.0 9.0 0.00 0.00 0.00 39 1023.1
20170324201115 65 299 5.0 12.0 0.00 0.00 0.00 39 1023.2
20170324200613 65 224 4.0 12.0 0.00 0.00 0.00 41 1023.2
20170324200144 65 246 7.0 12.0 0.00 0.00 0.00 38 1023.3
20170324195613 65 243 2.0 8.0 0.00 0.00 0.00 36 1023.2
20170324195113 65 266 5.0 11.0 0.00 0.00 0.00 35 1023.2
20170324194612 65 252 8.0 11.0 0.00 0.00 0.00 35 1023.2
20170324194112 65 237 3.0 7.0 0.00 0.00 0.00 34 1023.3
20170324193643 65 229 2.0 9.0 0.00 0.00 0.00 36 1023.4
20170324193144 64 274 3.0 9.0 0.00 0.00 0.00 41 1023.6
20170324192647 64 221 5.0 8.0 0.00 0.00 0.00 34 1023.6
20170324192142 64 284 5.0 9.0 0.00 0.00 0.00 32 1023.6
20170324191642 64 229 8.0 9.0 0.00 0.00 0.00 39 1023.8
20170324190643 64 222 4.0 7.0 0.00 0.00 0.00 38 1023.7
20170324190142 63 286 2.0 7.0 0.00 0.00 0.00 38 1023.6
20170324185641 63 204 4.0 6.0 0.00 0.00 0.00 40 1023.8
20170324185143 62 251 5.0 6.0 0.00 0.00 0.00 41 1023.8
20170324184640 62 243 4.0 6.0 0.00 0.00 0.00 42 1023.9
20170324184140 61 262 1.0 6.0 0.00 0.00 0.00 41 1024.0
20170324183642 61 237 5.0 7.0 0.00 0.00 0.00 41 1024.0
20170324183142 61 162 2.0 7.0 0.00 0.00 0.00 43 1024.1
20170324182640 61 247 3.0 7.0 0.00 0.00 0.00 45 1024.1
20170324182141 60 210 3.0 7.0 0.00 0.00 0.00 47 1023.8
20170324181643 60 188 2.0 7.0 0.00 0.00 0.00 48 1023.9
20170324181141 60 243 3.0 7.0 0.00 0.00 0.00 49 1023.9
20170324180641 59 264 3.0 7.0 0.00 0.00 0.00 49 1023.9
20170324180140 59 245 5.0 8.0 0.00 0.00 0.00 51 1024.0
20170324175639 59 235 5.0 8.0 0.00 0.00 0.00 48 1024.0
20170324175139 58 269 5.0 7.0 0.00 0.00 0.00 48 1023.9
20170324174639 58 231 4.0 7.0 0.00 0.00 0.00 49 1023.9
20170324174139 58 231 4.0 7.0 0.00 0.00 0.00 50 1024.0
20170324173640 58 271 3.0 8.0 0.00 0.00 0.00 50 1024.0
20170324173141 58 244 4.0 8.0 0.00 0.00 0.00 50 1024.1
20170324172640 58 209 5.0 7.0 0.00 0.00 0.00 51 1024.1
20170324172143 57 230 3.0 7.0 0.00 0.00 0.00 52 1023.8
20170324171641 57 257 5.0 9.0 0.00 0.00 0.00 51 1023.8
20170324171140 57 262 3.0 9.0 0.00 0.00 0.00 50 1023.8
20170324170638 58 223 6.0 8.0 0.00 0.00 0.00 51 1024.0
20170324170138 59 258 4.0 6.0 0.00 0.00 0.00 47 1023.9
20170324165639 59 226 3.0 4.0 0.00 0.00 0.00 48 1024.4
20170324165139 59 245 4.0 5.0 0.00 0.00 0.00 46 1024.4
20170324164638 60 205 4.0 5.0 0.00 0.00 0.00 44 1024.6
20170324164138 60 195 1.0 1.0 0.00 0.01 0.00 49 1024.6
20170324163640 59 146 0.0 1.0 0.00 0.01 0.00 47 1024.3
20170324163137 59 198 0.0 1.0 0.00 0.01 0.00 50 1024.3
20170324162638 57 143 0.0 2.0 0.00 0.01 0.00 49 1023.9
20170324162138 56 129 0.0 3.0 0.00 0.01 0.00 49 1023.9
20170324161638 56 214 1.0 3.0 0.00 0.01 0.00 47 1023.9
20170324161139 55 200 0.0 4.0 0.00 0.01 0.00 50 1023.6
20170324160636 55 212 2.0 4.0 0.00 0.01 0.00 49 1023.5
20170324160137 55 220 2.0 2.0 0.00 0.01 0.00 51 1023.6
20170324155637 55 196 0.0 2.0 0.00 0.01 0.00 51 1023.8
20170324155136 54 215 0.0 2.0 0.00 0.01 0.00 50 1023.5
20170324154636 54 191 0.0 2.0 0.00 0.01 0.00 54 1023.6
20170324154138 53 131 0.0 2.0 0.00 0.01 0.00 54 1023.6
20170324153637 53 138 1.0 3.0 0.00 0.01 0.00 57 1023.7
20170324153137 53 198 0.0 3.0 0.00 0.01 0.00 58 1023.6
20170324152636 52 236 2.0 3.0 0.00 0.01 0.00 59 1023.3
20170324152136 52 251 1.0 3.0 0.00 0.01 0.00 60 1023.1
20170324151637 51 269 0.0 1.0 0.00 0.01 0.00 65 1023.0
20170324150621 48 269 0.0 3.0 0.00 0.04 0.00 68 1022.4
20170324150121 46 60 1.0 5.0 0.00 0.04 0.00 69 1022.1
20170324145619 44 78 2.0 7.0 0.00 0.04 0.00 71 1022.1
20170324145119 42 60 4.0 7.0 0.00 0.04 0.00 75 1021.8
20170324144619 40 58 5.0 7.0 0.00 0.04 0.00 79 1021.7
20170324144120 39 65 5.0 7.0 0.00 0.04 0.00 80 1021.6
20170324143619 38 54 6.0 7.0 0.00 0.04 0.00 82 1021.7
20170324143120 38 53 4.0 7.0 0.00 0.04 0.00 82 1021.8
20170324142619 37 46 4.0 7.0 0.00 0.05 0.00 83 1021.7
20170324142120 36 29 4.0 10.0 0.00 0.05 0.00 84 1021.6
20170324141619 36 48 6.0 10.0 0.00 0.05 0.00 84 1021.6
20170324141118 36 32 6.0 9.0 0.00 0.05 0.00 84 1021.7
20170324140618 36 33 8.0 8.0 0.00 0.05 0.00 84 1021.7
20170324140118 36 43 6.0 7.0 0.00 0.05 0.00 84 1021.7
20170324135618 36 53 4.0 8.0 0.00 0.05 0.00 85 1021.6
20170324135117 35 50 4.0 8.0 0.00 0.05 0.00 86 1021.4
20170324134617 35 62 6.0 8.0 0.00 0.05 0.00 86 1021.4
20170324134117 36 34 7.0 8.0 0.00 0.06 0.00 85 1021.4